| time (UTC) | temp F | wind direction | speed MPH | gust MPH | rain 1hr in | rain 24hr in | rain mn in | humidity % | barometer mb |
| 20260505214515 | 61 | 338 | 2.0 | 2.0 | 0.00 | 0.00 | 0.00 | 74 | 1016.3 |
| 20260505213515 | 62 | 68 | 2.0 | 3.0 | 0.00 | 0.00 | 0.00 | 72 | 1016.5 |
| 20260505212515 | 61 | 0.0 | 0.0 | 0.00 | 0.00 | 0.00 | 73 | 1016.5 | |
| 20260505211515 | 61 | 0.0 | 1.0 | 0.00 | 0.00 | 0.00 | 73 | 1016.5 | |
| 20260505210515 | 61 | 0.0 | 1.0 | 0.00 | 0.00 | 0.00 | 73 | 1016.4 | |
| 20260505205515 | 61 | 0.0 | 1.0 | 0.00 | 0.00 | 0.00 | 74 | 1016.4 | |
| 20260505204516 | 61 | 248 | 1.0 | 2.0 | 0.00 | 0.00 | 0.00 | 74 | 1016.4 |
| 20260505203515 | 61 | 338 | 5.0 | 5.0 | 0.00 | 0.00 | 0.00 | 74 | 1016.4 |
| 20260505202517 | 60 | 23 | 3.0 | 6.0 | 0.00 | 0.00 | 0.00 | 75 | 1016.4 |
| 20260505201516 | 60 | 23 | 1.0 | 3.0 | 0.00 | 0.00 | 0.00 | 75 | 1016.5 |
| 20260505200515 | 60 | 248 | 2.0 | 3.0 | 0.00 | 0.00 | 0.00 | 74 | 1016.6 |
| 20260505195556 | 61 | 68 | 3.0 | 3.0 | 0.00 | 0.00 | 0.00 | 73 | 1016.7 |
| 20260505194555 | 61 | 0.0 | 0.0 | 0.00 | 0.00 | 0.00 | 74 | 1016.7 | |
| 20260505193515 | 60 | 0.0 | 0.0 | 0.00 | 0.00 | 0.00 | 74 | 1016.9 | |
| 20260505192555 | 60 | 248 | 2.0 | 3.0 | 0.00 | 0.00 | 0.00 | 74 | 1016.9 |
| 20260505191517 | 60 | 0.0 | 1.0 | 0.00 | 0.00 | 0.00 | 73 | 1016.8 | |
| 20260505190515 | 60 | 135 | 2.0 | 2.0 | 0.00 | 0.00 | 0.00 | 74 | 1016.8 |
| 20260505185516 | 59 | 135 | 1.0 | 1.0 | 0.00 | 0.00 | 0.00 | 74 | 1016.7 |
| 20260505184555 | 58 | 23 | 2.0 | 3.0 | 0.00 | 0.00 | 0.00 | 76 | 1016.7 |
| 20260505183515 | 59 | 315 | 3.0 | 5.0 | 0.00 | 0.00 | 0.00 | 75 | 1016.7 |
| 20260505182515 | 58 | 45 | 2.0 | 3.0 | 0.00 | 0.00 | 0.00 | 75 | 1016.8 |
| 20260505181555 | 58 | 23 | 3.0 | 4.0 | 0.00 | 0.00 | 0.00 | 75 | 1016.8 |
| 20260505180515 | 58 | 23 | 4.0 | 6.0 | 0.00 | 0.00 | 0.00 | 74 | 1016.7 |
| 20260505175534 | 58 | 0 | 3.0 | 5.0 | 0.00 | 0.00 | 0.00 | 73 | 1016.6 |
| 20260505174515 | 58 | 0.0 | 0.0 | 0.00 | 0.00 | 0.00 | 72 | 1016.6 | |
| 20260505173555 | 59 | 0.0 | 0.0 | 0.00 | 0.00 | 0.00 | 71 | 1016.3 | |
| 20260505172515 | 59 | 0.0 | 0.0 | 0.00 | 0.00 | 0.00 | 72 | 1016.3 | |
| 20260505171515 | 58 | 0.0 | 0.0 | 0.00 | 0.00 | 0.00 | 72 | 1016.2 | |
| 20260505170515 | 58 | 0.0 | 0.0 | 0.00 | 0.00 | 0.00 | 72 | 1016.2 | |
| 20260505165517 | 58 | 0.0 | 0.0 | 0.00 | 0.00 | 0.00 | 73 | 1016.2 | |
| 20260505164515 | 58 | 0.0 | 0.0 | 0.00 | 0.00 | 0.00 | 73 | 1016.2 | |
| 20260505163555 | 58 | 0.0 | 0.0 | 0.00 | 0.00 | 0.00 | 74 | 1016.0 | |
| 20260505162515 | 57 | 0.0 | 0.0 | 0.00 | 0.00 | 0.00 | 76 | 1016.1 | |
| 20260505161515 | 56 | 0.0 | 0.0 | 0.00 | 0.00 | 0.00 | 76 | 1016.1 | |
| 20260505160515 | 56 | 0.0 | 0.0 | 0.00 | 0.00 | 0.00 | 76 | 1016.0 | |
| 20260505152515 | 55 | 0.0 | 0.0 | 0.00 | 0.00 | 0.00 | 77 | 1015.9 | |
| 20260505151635 | 55 | 0.0 | 0.0 | 0.00 | 0.00 | 0.00 | 78 | 1015.8 | |
| 20260505150515 | 55 | 0.0 | 0.0 | 0.00 | 0.00 | 0.00 | 78 | 1015.8 | |
| 20260505140557 | 54 | 0.0 | 0.0 | 0.00 | 0.00 | 0.00 | 81 | 1015.4 | |
| 20260505124517 | 53 | 0.0 | 0.0 | 0.00 | 0.00 | 0.00 | 82 | 1015.2 | |
| 20260505123557 | 53 | 0.0 | 0.0 | 0.00 | 0.00 | 0.00 | 82 | 1015.3 | |
| 20260505122517 | 53 | 0.0 | 0.0 | 0.00 | 0.00 | 0.00 | 82 | 1015.3 | |
| 20260505121517 | 53 | 0.0 | 0.0 | 0.00 | 0.00 | 0.00 | 82 | 1015.3 | |
| 20260505120517 | 53 | 0.0 | 0.0 | 0.00 | 0.00 | 0.00 | 82 | 1015.3 | |
| 20260505115517 | 53 | 0.0 | 0.0 | 0.00 | 0.00 | 0.00 | 81 | 1015.3 | |
| 20260505114517 | 53 | 0.0 | 0.0 | 0.00 | 0.00 | 0.00 | 82 | 1015.4 | |
| 20260505113517 | 54 | 0.0 | 0.0 | 0.00 | 0.00 | 0.00 | 81 | 1015.4 | |
| 20260505112516 | 54 | 338 | 1.0 | 2.0 | 0.00 | 0.00 | 0.00 | 81 | 1015.3 |
| 20260505111517 | 54 | 338 | 1.0 | 1.0 | 0.00 | 0.00 | 0.00 | 80 | 1015.4 |
| 20260505110518 | 54 | 0 | 1.0 | 1.0 | 0.00 | 0.00 | 0.00 | 79 | 1015.3 |
| 20260505101517 | 54 | 0.0 | 1.0 | 0.00 | 0.00 | 0.00 | 77 | 1015.3 | |
| 20260505100557 | 54 | 0.0 | 2.0 | 0.00 | 0.00 | 0.00 | 77 | 1015.4 | |
| 20260505095557 | 54 | 0.0 | 0.0 | 0.00 | 0.00 | 0.00 | 76 | 1015.5 | |
| 20260505094517 | 54 | 315 | 1.0 | 3.0 | 0.00 | 0.00 | 0.00 | 76 | 1015.5 |
| 20260505093516 | 54 | 315 | 1.0 | 1.0 | 0.00 | 0.00 | 0.00 | 76 | 1015.7 |
| 20260505092517 | 55 | 338 | 4.0 | 5.0 | 0.00 | 0.00 | 0.00 | 74 | 1015.6 |
| 20260505091502 | 55 | 270 | 2.0 | 2.0 | 0.00 | 0.00 | 0.00 | 74 | 1015.7 |
| 20260505091317 | 55 | 270 | 1.0 | 4.0 | 0.00 | 0.00 | 0.00 | 73 | 1015.6 |
| 20260505090317 | 55 | 315 | 3.0 | 5.0 | 0.00 | 0.00 | 0.00 | 72 | 1015.8 |
| 20260505085317 | 55 | 315 | 4.0 | 6.0 | 0.00 | 0.00 | 0.00 | 72 | 1015.9 |
| 20260505084316 | 55 | 315 | 7.0 | 10.0 | 0.00 | 0.00 | 0.00 | 72 | 1015.9 |
| 20260505083316 | 55 | 315 | 5.0 | 7.0 | 0.00 | 0.00 | 0.00 | 72 | 1016.1 |
| 20260505082356 | 55 | 293 | 2.0 | 3.0 | 0.00 | 0.00 | 0.00 | 72 | 1016.1 |
| 20260505081316 | 55 | 315 | 6.0 | 8.0 | 0.00 | 0.00 | 0.00 | 72 | 1016.1 |
| 20260505080316 | 55 | 338 | 2.0 | 3.0 | 0.00 | 0.00 | 0.00 | 73 | 1016.1 |
| 20260505075357 | 55 | 315 | 7.0 | 11.0 | 0.00 | 0.00 | 0.00 | 74 | 1016.2 |
| 20260505074316 | 55 | 315 | 7.0 | 9.0 | 0.00 | 0.00 | 0.00 | 76 | 1016.1 |
| 20260505073316 | 55 | 315 | 2.0 | 3.0 | 0.00 | 0.00 | 0.00 | 77 | 1016.1 |
| 20260505072316 | 55 | 315 | 4.0 | 5.0 | 0.00 | 0.00 | 0.00 | 77 | 1016.1 |
| 20260505071316 | 55 | 315 | 6.0 | 8.0 | 0.00 | 0.00 | 0.00 | 77 | 1015.9 |
| 20260505070317 | 55 | 315 | 4.0 | 7.0 | 0.00 | 0.00 | 0.00 | 79 | 1015.8 |
| 20260505065316 | 56 | 315 | 5.0 | 6.0 | 0.00 | 0.00 | 0.00 | 81 | 1015.8 |
| 20260505064316 | 56 | 315 | 2.0 | 3.0 | 0.00 | 0.00 | 0.00 | 81 | 1015.8 |
| 20260505063316 | 56 | 338 | 2.0 | 3.0 | 0.00 | 0.00 | 0.00 | 81 | 1015.8 |
| 20260505062319 | 56 | 315 | 2.0 | 4.0 | 0.00 | 0.00 | 0.00 | 81 | 1015.6 |
| 20260505061320 | 56 | 293 | 1.0 | 2.0 | 0.00 | 0.00 | 0.00 | 80 | 1015.6 |
| 20260505060356 | 56 | 0.0 | 0.0 | 0.00 | 0.00 | 0.00 | 80 | 1015.5 | |
| 20260505055316 | 56 | 315 | 2.0 | 4.0 | 0.00 | 0.00 | 0.00 | 80 | 1015.6 |
| 20260505054316 | 57 | 315 | 4.0 | 6.0 | 0.00 | 0.00 | 0.00 | 79 | 1015.8 |
| 20260505053316 | 57 | 338 | 3.0 | 5.0 | 0.00 | 0.00 | 0.00 | 79 | 1015.7 |
| 20260505052316 | 57 | 315 | 7.0 | 9.0 | 0.00 | 0.00 | 0.00 | 78 | 1016.1 |
| 20260505050316 | 57 | 338 | 4.0 | 6.0 | 0.00 | 0.00 | 0.00 | 77 | 1016.1 |
| 20260505041316 | 58 | 315 | 6.0 | 8.0 | 0.00 | 0.00 | 0.00 | 75 | 1015.6 |
| 20260505040316 | 58 | 315 | 5.0 | 8.0 | 0.00 | 0.00 | 0.00 | 74 | 1015.4 |
| 20260505035316 | 58 | 315 | 5.0 | 7.0 | 0.00 | 0.00 | 0.00 | 72 | 1015.3 |
| 20260505034316 | 59 | 315 | 4.0 | 5.0 | 0.00 | 0.00 | 0.00 | 71 | 1015.2 |
| 20260505033316 | 59 | 338 | 2.0 | 3.0 | 0.00 | 0.00 | 0.00 | 70 | 1015.0 |
| 20260505032315 | 59 | 293 | 3.0 | 4.0 | 0.00 | 0.00 | 0.00 | 69 | 1014.8 |
| 20260505031316 | 60 | 315 | 5.0 | 8.0 | 0.00 | 0.00 | 0.00 | 68 | 1014.7 |
| 20260505030315 | 60 | 315 | 3.0 | 5.0 | 0.00 | 0.00 | 0.00 | 68 | 1014.8 |
| 20260505025316 | 60 | 0 | 3.0 | 6.0 | 0.00 | 0.00 | 0.00 | 67 | 1014.8 |
| 20260505024315 | 60 | 315 | 7.0 | 9.0 | 0.00 | 0.00 | 0.00 | 66 | 1014.8 |
| 20260505023316 | 60 | 338 | 5.0 | 8.0 | 0.00 | 0.00 | 0.00 | 65 | 1014.7 |
| 20260505022316 | 60 | 338 | 4.0 | 8.0 | 0.00 | 0.00 | 0.00 | 64 | 1014.7 |
| 20260505021316 | 61 | 338 | 5.0 | 7.0 | 0.00 | 0.00 | 0.00 | 63 | 1014.8 |
| 20260505020316 | 61 | 338 | 5.0 | 7.0 | 0.00 | 0.00 | 0.00 | 64 | 1014.5 |
| 20260505015316 | 61 | 338 | 5.0 | 11.0 | 0.00 | 0.00 | 0.00 | 64 | 1014.5 |
| 20260505014316 | 61 | 23 | 10.0 | 13.0 | 0.00 | 0.00 | 0.00 | 63 | 1014.5 |
| 20260505013316 | 62 | 0 | 4.0 | 6.0 | 0.00 | 0.00 | 0.00 | 64 | 1014.5 |
| 20260505012436 | 62 | 23 | 3.0 | 5.0 | 0.00 | 0.00 | 0.00 | 65 | 1014.6 |
| 20260505011316 | 62 | 0 | 5.0 | 8.0 | 0.00 | 0.00 | 0.00 | 66 | 1014.7 |
| 20260505010315 | 62 | 315 | 7.0 | 9.0 | 0.00 | 0.00 | 0.00 | 66 | 1014.8 |
| 20260505005316 | 62 | 315 | 7.0 | 12.0 | 0.00 | 0.00 | 0.00 | 66 | 1014.8 |
| 20260505004316 | 62 | 338 | 4.0 | 7.0 | 0.00 | 0.00 | 0.00 | 67 | 1014.9 |
| 20260505003315 | 62 | 315 | 7.0 | 9.0 | 0.00 | 0.00 | 0.00 | 67 | 1014.9 |
| 20260505002355 | 62 | 315 | 2.0 | 3.0 | 0.00 | 0.00 | 0.00 | 67 | 1014.9 |
| 20260505001356 | 62 | 270 | 3.0 | 6.0 | 0.00 | 0.00 | 0.00 | 67 | 1015.0 |
| 20260505000315 | 62 | 293 | 5.0 | 8.0 | 0.00 | 0.00 | 0.00 | 67 | 1014.9 |
| 20260504235316 | 61 | 293 | 2.0 | 4.0 | 0.00 | 0.00 | 0.00 | 70 | 1014.9 |
| 20260504234315 | 61 | 225 | 4.0 | 6.0 | 0.00 | 0.00 | 0.00 | 70 | 1014.9 |
| 20260504233315 | 61 | 270 | 4.0 | 8.0 | 0.00 | 0.00 | 0.00 | 69 | 1014.8 |
| 20260504232315 | 62 | 315 | 3.0 | 5.0 | 0.00 | 0.00 | 0.00 | 68 | 1014.9 |
| 20260504231315 | 62 | 270 | 6.0 | 8.0 | 0.00 | 0.00 | 0.00 | 66 | 1014.8 |
| 20260504230316 | 63 | 0 | 6.0 | 8.0 | 0.00 | 0.00 | 0.00 | 65 | 1014.8 |
| 20260504225315 | 63 | 338 | 7.0 | 9.0 | 0.00 | 0.00 | 0.00 | 64 | 1014.8 |
| 20260504224315 | 64 | 315 | 7.0 | 11.0 | 0.00 | 0.00 | 0.00 | 64 | 1014.7 |
| 20260504223315 | 64 | 0 | 1.0 | 2.0 | 0.00 | 0.00 | 0.00 | 61 | 1014.8 |
| 20260504222315 | 65 | 248 | 4.0 | 6.0 | 0.00 | 0.00 | 0.00 | 60 | 1014.9 |
| 20260504221315 | 65 | 293 | 2.0 | 4.0 | 0.00 | 0.00 | 0.00 | 61 | 1014.8 |
| 20260504220315 | 65 | 203 | 2.0 | 5.0 | 0.00 | 0.00 | 0.00 | 61 | 1015.0 |
| 20260504215315 | 65 | 225 | 7.0 | 11.0 | 0.00 | 0.00 | 0.00 | 60 | 1015.1 |